Regional Weather Roundup
Issued by NWS Grand Forks, ND

Home | Current Version | Previous Version | Graphics & Text | Print | Product List | Glossary On
Versions: 1 2 3 4 5 6 7 8 9 10 11 12 13 14 15 16 17 18 19 20 21 22 23 24 25 26 27 28 29 30 31 32 33 34 35 36 37 38 39 40 41 42 43 44 45 46 47 48 49 50
786
ASUS43 KFGF 081610
RWRFGF
PRAIRIE TO PINES  WEATHER ROUNDUP
NATIONAL WEATHER SERVICE EASTERN NORTH DAKOTA/GRAND FORKS ND
1000 AM CST THU DEC 08 2016

 **SATELLITE DATA USED TO AUGMENT SKY COVER AT AUTOMATED STATIONS**
 *****  WEATHER ACROSS EASTERN NORTH DAKOTA  *****

CITY           SKY/WX    TMP DP  RH WIND       PRES   REMARKS
GRAND FORKS    LGT SNOW  15  10  80 NW22      30.50R BLWGSNOWWCI  -3
GRAND FRKS AFB LGT SNOW  14   9  79 N20       30.51R WCI  -3
DEVILS LAKE    CLOUDY     5   0  79 NW22      30.53R WCI -16
FARGO          LGT SNOW  16   9  74 NW23      30.50R WCI  -2
WAHPETON ARPT  CLOUDY    14   9  79 NW17G25   30.51R WCI  -3
$$

 ***** WEATHER ACROSS CENTRAL AND WESTERN NORTH DAKOTA  *****

CITY           SKY/WX    TMP DP  RH WIND       PRES   REMARKS
BISMARCK       PTSUNNY    1  -5  75 W10       30.65R WCI -15
MINOT          SUNNY     -2  -8  76 W17       30.62R WCI -23
JAMESTOWN      MIX PCPN   5   1  83 NW24G32   30.54R FOG     WCI -17
MINOT AFB      SUNNY     -4 -10  75 NW17      30.61R WCI -26
GARRISON         N/A     -2  -8  76 NW16      30.61R WCI -23
WILLISTON      MOCLDY    -4 -11  72 W7        30.68R WCI -18
DICKINSON      CLOUDY    -5  -9  83 W16       30.57R FOG     WCI -27
HETTINGER      SUNNY     -4  -9  79 NW12      30.60R WCI -22
$$

 *****  OTHER AIRPORT OBSERVATIONS IN OUR AREA  *****

CITY           SKY/WX    TMP DP  RH WIND       PRES   REMARKS
WALHALLA       LGT SNOW  12  12 100 NW17      30.53R WCI  -5
GRAFTON AIRPOR CLOUDY    14  10  85 NW18G24   30.52R FOG     WCI  -3
VALLEY CITY AR FLURRIES   7   3  85 NW20G26   30.55R WCI -13
CANDO          CLOUDY     7   1  78 W12       30.57R WCI  -9
CAVALIER APRT  LGT SNOW  14  10  85 NW17G23   30.52R VSB 1   WCI  -3
GWINNER        CLOUDY    12   7  79 NW21G26   30.53R WCI  -6
SHEYENNE NWR     N/A     10   2  69 NW14      29.95S WCI  -6
ROLLA          FAIR       1   0  92 NW22      30.50S FOG     WCI -21
 ***** THE ABOVE OBSERVATIONS ARE NON NWS ARE NOT QUALITY
       CONTROLLED AND MAY MIS-REPORT RAIN FOR SNOW...
$$

  *****  WEATHER ACROSS NORTHERN MINNESOTA  *****

CITY           SKY/WX    TMP DP  RH WIND       PRES   REMARKS
FLAG ISLAND    CLOUDY    18  12  79 N17G26    30.38R WCI   2
WARROAD        MOSUNNY   18  12  79 NW12      30.40R WCI   5
ROSEAU         CLOUDY    18  12  79 N13       30.41R WCI   4
HALLOCK        CLOUDY    16  12  86 NW20G25   30.48R WCI  -1
THF RVR FALLS  LGT SNOW  16  13  88 NW16      30.43R FOG     WCI   1
BAUDETTE       LGT SNOW  20  13  74 N18       30.34R WCI   5
WASKISH        FLURRIES  18  14  86 NW10      30.34R WCI   6
CROOKSTON      LGT SNOW  14  12  92 N22G28    30.47R VSB 3/4 WCI  -4
$$
  *****  WEATHER ACROSS CENTRAL AND WEST MINNESOTA  *****

CITY           SKY/WX    TMP DP  RH WIND       PRES   REMARKS
FOSSTON        LGT SNOW  12   9  85 W12       30.41R WCI  -2
BEMIDJI        FLURRIES  15  10  83 NW15      30.34R WCI  -1
PARK RAPIDS    MIX PCPN  16   7  67 NW14      30.35R WCI   2
ELBOW LAKE     LGT SNOW  13  10  89 NW21      30.45R WCI  -5
WADENA         FLURRIES  14   9  79 NW16G23   30.37R WCI  -2
DETROIT LAKES  LGT SNOW  16  12  86 NW20G25   30.41R WCI  -1
MOORHEAD       MIX PCPN  14  10  85 NW21      30.49R WCI  -4
FERGUS FALLS   CLOUDY    14  10  85 NW25      30.50R FOG     WCI  -5
MORRIS MN      CLOUDY    12   9  85 NW22G28   30.46R WCI  -7
STAPLES        CLOUDY    16  10  79 NW14      30.36R WCI   1
$$
  *****  WEATHER ELSEWHERE ACROSS MINNESOTA  *****

CITY           SKY/WX    TMP DP  RH WIND       PRES   REMARKS
DULUTH         CLOUDY    20  15  81 NW15G28   30.20R WCI   6
INTRNTL FALLS  LGT SNOW  20  15  81 N12       30.29R VSB 1   WCI   8
ELY            CLOUDY    19  16  86 NW12G20   30.19R WCI   7
CLOQUET        MOSUNNY   19  14  79 NW13      30.23R WCI   7
WHEATON        CLOUDY    14   9  79 W18G25    30.53R WCI  -3
BRAINERD       CLOUDY    19  11  70 NW16G26   30.33R WCI   4
HIBBING        CLOUDY    18  14  84 NW15      30.25R WCI   4
ALEXANDRIA     FLURRIES  16  10  77 NW22G29   30.40R WCI  -2
SAINT CLOUD    PTSUNNY   21  14  74 NW14G24   30.35R WCI   8
MINNEAPOLIS    PTSUNNY   23  14  68 NW18      30.34R WCI   9
$$

  *****  WEATHER ACROSS SOUTH DAKOTA  *****

CITY           SKY/WX    TMP DP  RH WIND       PRES   REMARKS
SIOUX FALLS    MOSUNNY   11   5  77 NW22G29   30.55R WCI  -8
BROOKINGS      SUNNY      9   4  80 NW24      30.50R WCI -12
WATERTOWN      CLOUDY     9   3  77 NW21      30.49R WCI -11
HURON          MOSUNNY   10   2  69 NW17      30.63R WCI  -8
SISSETON         N/A     13   5  70 NW24G33   30.51R WCI  -7
ABERDEEN       CLOUDY    10   2  69 NW17      30.60R WCI  -8
MITCHELL       SUNNY     11   2  67 NW21G31   30.65R WCI  -8
PIERRE         PTSUNNY    5  -1  76 NW21      30.66R WCI -16
MOBRIDGE       CLOUDY     3  -5  69 NW21      30.60R WCI -18
RAPID CITY     SUNNY      2  -5  72 SE3       30.58R
$$

  *****  SOME WEATHER IN NEARBY STATES *****

CITY           SKY/WX    TMP DP  RH WIND       PRES   REMARKS
GLASGOW MT     CLEAR     -6 -11  79 W3        30.66R
GREAT FALLS MT CLOUDY    -3  -8  79 N5        30.47S WCI -13
CHEYENNE WY    CLOUDY     0  -7  72 SW6       30.32R WCI -12
SCOTTSBLUFF NE SUNNY     -1  -8  72 W8        30.54R WCI -15
OMAHA NE       MOSUNNY   16   5  62 NW18G24   30.62R WCI   0
DES MOINES IA  MOSUNNY   16   6  65 NW18      30.52R WCI   0
DAVENPORT IA   CLOUDY    16   9  74 W24G31    30.40R WCI  -2
CHICAGO IL     FLURRIES  18   9  68 W20G30    30.27R WCI   2
EAU CLAIRE WI  CLOUDY    23  17  78 NW14      30.25R WCI  11
LA CROSSE WI   CLOUDY    24  15  68 NW13      30.30R WCI  12
$$

  *****  SOME NATIONAL WEATHER *****

CITY           SKY/WX    TMP DP  RH WIND       PRES   REMARKS
LA GUARDIA NY  CLOUDY    45  23  42 W7        29.94F
RALEIGH NC     CLOUDY    50  30  46 NW7G17    30.12R
ATLANTA GA     CLOUDY    45  27  49 NW16G23   30.26R
NEW ORLEANS LA LGT RAIN  51  49  92 N16G25    30.35R
OKLAHOMA CITY  PTSUNNY   26  10  50 N16       30.70R WCI  14
ALBUQUERQUE NM CLOUDY    27  13  55 E8        30.40R WCI  19
SALT LAKE CITY PTSUNNY   24  10  55 S7        30.26S WCI  16
LOS ANGELES CA CLOUDY    56  45  66 E5        30.23R
BOISE ID       CLOUDY    20  11  68 E5        30.24F WCI  13
SEATTLE WA     PTCLDY    33  12  41 E17       30.09F WCI  22
$$

*** WEATHER ACROSS MANITOBA...SASKATCHEWAN AND ONTARIO ***
                ***ONTARIO***

CITY           SKY/WX    TMP DP  RH WIND       PRES   REMARKS
GERALDTON      SNOWSHWR  18  14  86 NW15      29.99R WCI   3
THUNDER BAY    CLOUDY    25  18  74 NW14G20   30.13R WCI  13
SIOUX LOOKOUT  LGT SNOW  14   9  79 NW13      30.24R DRFTSNOWWCI   0
TORONTO        FLURRIES  30  18  59 W16G23    29.92R WCI  19
BIG TROUT LK   FLURRIES   9   5  85 NW13G22   30.24R WCI  -7
PICKLE LAKE    LGT SNOW   9   3  78 NW9G21    30.18R DRFTSNOWWCI  -5
DRYDEN         MOSUNNY   16  10  79 NW10G18   30.26R WCI   3
KENORA         NOT AVBL
$$
                *** MANITOBA***

CITY           SKY/WX    TMP DP  RH WIND       PRES   REMARKS
BRANDON        PTCLDY     3  -2  78 NW14      30.57R WCI -15
DAUPHIN        FLURRIES   7   3  85 NE8       30.59R WCI  -6
ISLAND LAKE    FLURRIES   1  -2  85 NW15      30.47R WCI -18
PILOT MOUND      N/A      5   1  85 NW17        N/A  WCI -14
THE PAS        LGT SNOW  -6 -11  77 NW15      30.64S BLWGSNOWWCI -27
THOMPSON       MOCLDY   -15 -22  70 NW8       30.62R WCI -32
WINNIPEG       FLURRIES  14   9  79 N21       30.51R WCI  -4
LYNN LAKE      CLEAR    -18 -22  83 NW9       30.65F WCI -38
CHURCHILL      SNOW      -4  -8  84 NW25G32   30.52S VSB 1/2 WCI -30
GILLAM         CLEAR    -15 -22  70 NW13      30.55S WCI -37
$$
                ***SASKATCHEWAN***

CITY           SKY/WX    TMP DP  RH WIND       PRES   REMARKS
ESTEVAN        CRYSTALS  -8 -13  77 W13       30.62R WCI -28
KINDERSLEY     MOCLDY   -11 -15  84 N9        30.64F WCI -29
LLOYDMINSTER   CRYSTALS -13 -18  77 NW5       30.67S WCI -25
PRINCE ALBERT  MOCLDY    -8 -15  71 NW9       30.70R WCI -25
REGINA         FLURRIES  -2  -8  78 NW17      30.63R WCI -24
YORKTON        CLEAR      0  -6  78 NW13G20   30.58R WCI -18
N. BATTLEFORD  CLEAR    -11 -17  77 NW9       30.73R WCI -29
LA RONGE       MOCLDY   -13 -18  77 NW6       30.73R WCI -27
SASKATOON      CRYSTALS  -8 -13  77 NW6       30.70S WCI -21
SWIFT CURRENT  FLURRIES  -9 -13  84 W9        30.57S WCI -27
$$
NOTE: THESE ARE AUTOMATED STATIONS WITH LIMITED QUALITY CONTROL
      "FAIR" INDICATES FEW OR NO CLOUDS BELOW 12,000 FEET WITH NO
      SIGNIFICANT WEATHER AND/OR OBSTRUCTIONS TO VISIBILITY.
      SKY/WX - SKY CONDITION AND SIGNIFICANT WEATHER.
      TMP - AIR TEMPERATURE.    DP   - DEWPOINT TEMPERATURE.
      RH  - RELATIVE HUMIDITY.  PRES - PRESSURE.
      HX  - HEAT INDEX.         WCI  - WIND CHILL INDEX.
$




USA.gov is the U.S. government's official web portal to all federal, state and local government web resources and services.